Location: New Plymouth
(39.0670°S, 174.0830°E)
Time: 19:53:20
(UTC+12:00)

NOAA 19 - Visible Passes

Search period start: 19 August 2019 00:00
Search period end: 29 August 2019 00:00
Orbit: 841 x 861 km, 99.2° (Epoch: 18 August)

Date Brightness Start Highest point End Pass type
(mag) Time Alt. Az. Time Alt. Az. Time Alt. Az.
19 Aug 7.4 03:42:58 10° ENE 03:47:01 21° ESE 03:51:04 10° SSE visible
19 Aug 5.3 05:21:56 10° N 05:27:15 51° W 05:32:38 10° SSW visible
19 Aug 8.0 19:27:16 10° SSW 19:30:25 15° WSW 19:33:31 10° W visible
20 Aug 7.7 03:32:04 10° E 03:35:29 17° ESE 03:38:56 10° SSE visible
20 Aug 5.1 05:10:07 10° N 05:15:33 66° WNW 05:21:04 10° SSW visible
20 Aug 7.8 19:15:03 10° SSW 19:18:54 19° WSW 19:22:44 10° WNW visible
21 Aug 8.0 03:21:26 10° E 03:23:59 13° ESE 03:26:34 10° SSE visible
21 Aug 5.1 04:58:23 10° NNE 05:03:52 84° WNW 05:09:26 10° SSW visible
21 Aug 7.5 19:02:59 10° SSW 19:07:22 24° WSW 19:11:45 10° WNW visible
22 Aug 8.2 03:11:34 10° ESE 03:12:31 10° ESE 03:13:29 10° SE visible
22 Aug 5.3 04:46:45 10° NNE 04:52:13 77° ESE 04:57:46 10° S visible
22 Aug 6.8 06:31:07 10° WNW 06:33:26 13° W 06:35:46 10° WSW visible
22 Aug 7.2 18:51:02 10° S 18:55:50 30° WSW 19:00:36 10° NW visible
23 Aug 5.6 04:35:12 10° NNE 04:40:34 61° ESE 04:46:02 10° S visible
23 Aug 6.6 06:18:12 10° NW 06:21:37 17° W 06:25:05 10° SW visible
23 Aug 6.8 18:39:08 10° S 18:44:15 38° WSW 18:49:21 10° NW visible
24 Aug 6.1 04:23:44 10° NE 04:28:57 47° ESE 04:34:15 10° S visible
24 Aug 6.3 06:05:42 10° NW 06:09:50 22° W 06:14:00 10° SW visible
24 Aug 6.4 18:27:19 10° S 18:32:40 48° WSW 18:37:58 10° NW visible
25 Aug 6.5 04:12:21 10° NE 04:17:22 37° ESE 04:22:26 10° S visible
25 Aug 6.0 05:53:27 10° NNW 05:58:03 28° W 06:02:44 10° SW visible
25 Aug 5.9 18:15:32 10° S 18:21:03 61° WSW 18:26:31 10° NNW visible
26 Aug 6.9 04:01:06 10° NE 04:05:48 30° ESE 04:10:32 10° S visible
26 Aug 5.7 05:41:20 10° NNW 05:46:18 35° W 05:51:21 10° SSW visible
26 Aug 8.3 19:47:56 10° SW 19:49:06 11° WSW 19:50:17 10° WSW visible
27 Aug 7.3 03:49:56 10° ENE 03:54:15 24° ESE 03:58:35 10° SSE visible
27 Aug 5.4 05:29:20 10° N 05:34:34 45° W 05:39:53 10° SSW visible
27 Aug 8.1 19:34:57 10° SSW 19:37:38 14° WSW 19:40:18 10° W visible
28 Aug 7.6 03:38:56 10° ENE 03:42:43 19° ESE 03:46:30 10° SSE visible
28 Aug 5.2 05:17:28 10° N 05:22:51 58° WNW 05:28:20 10° SSW visible
28 Aug 8.0 19:22:37 10° SSW 19:26:09 17° WSW 19:29:39 10° W visible
